IZ0QWM-13 Scandriglia IT current weather conditions

sailwx.info

Air temperature 12.2° C
Dewpoint 5.2° C

Last reported at 2016-Dec-10 15:55 UTC.
Time now 2016-Dec-10 16:40 UTC

Location: N 42°10' E 012°47'.
View on Google Maps.

See reports from other nearby stations

  
Tides and Currents Weather Stations Pressure Air Temp Water Temp Dewpoint Dewpoint Depression Visibility Wind Speed Wind Dir Waves Ship Positions
date/time (UTC)wind fromknots sea level pressurealtimeterstation pressurevisibilityair tempwater tempwave heightnotes
2016-Dec-10 15:55 12.2
2016-Dec-10 15:45 12.2
2016-Dec-10 15:35 12.8
2016-Dec-10 15:25 12.8
2016-Dec-10 15:15 090 0 gusting 0 13.9
2016-Dec-10 15:05 090 0 gusting 0 13.9
2016-Dec-10 14:55 070 0 gusting 0 13.9
2016-Dec-10 14:45 070 0 gusting 0 13.9
2016-Dec-10 14:35 090 0 gusting 0 15.0
2016-Dec-10 14:25 090 0 gusting 0 15.0
2016-Dec-10 14:15 090 0 gusting 0 15.0
2016-Dec-10 14:05 090 0 gusting 0 15.0
2016-Dec-10 13:55 270 0 gusting 0 16.1
2016-Dec-10 13:45 270 0 gusting 0 16.1
2016-Dec-10 13:35 090 0 gusting 0 15.0
2016-Dec-10 13:25 090 0 gusting 0 15.0
2016-Dec-10 13:15 090 0 gusting 0 15.0
2016-Dec-10 13:05 090 0 gusting 0 15.0
2016-Dec-10 12:55 300 0 gusting 0 15.0
2016-Dec-10 12:45 300 0 gusting 0 15.0
2016-Dec-10 12:35 090 0 gusting 0 15.0
2016-Dec-10 12:25 090 0 gusting 0 15.0
2016-Dec-10 12:15 090 0 gusting 0 15.0
2016-Dec-10 12:05 090 0 gusting 0 15.0
2016-Dec-10 11:55 090 0 gusting 0 15.0
2016-Dec-10 11:45 090 0 gusting 0 15.0
2016-Dec-10 11:35 15.0
2016-Dec-10 11:25 15.0
2016-Dec-10 11:15 090 0 gusting 0 13.9
2016-Dec-10 11:05 090 0 gusting 0 13.9
2016-Dec-10 10:55 340 0 gusting 0 11.1
2016-Dec-10 10:45 340 0 gusting 0 11.1
2016-Dec-10 10:35 340 0 gusting 0 11.1
2016-Dec-10 10:25 340 0 gusting 0 11.1
2016-Dec-10 10:15 090 0 gusting 0 8.9
2016-Dec-10 10:05 090 0 gusting 0 8.9
2016-Dec-10 09:55 270 0 gusting 0 7.8
2016-Dec-10 09:45 270 0 gusting 0 7.8
2016-Dec-10 09:35 140 0 gusting 0 7.2
2016-Dec-10 09:25 140 0 gusting 0 7.2
2016-Dec-10 09:15 6.1
2016-Dec-10 09:05 6.1
2016-Dec-10 08:55 130 0 gusting 0 5.0
2016-Dec-10 08:45 130 0 gusting 0 5.0
2016-Dec-10 08:35 090 0 gusting 0 3.9
2016-Dec-10 08:25 090 0 gusting 0 3.9
2016-Dec-10 08:15 090 0 gusting 0 3.9
2016-Dec-10 08:05 090 0 gusting 0 3.9
2016-Dec-10 07:55 110 0 gusting 0 3.9
2016-Dec-10 07:45 110 0 gusting 0 3.9
2016-Dec-10 07:35 140 0 gusting 0 3.9
2016-Dec-10 07:25 140 0 gusting 0 3.9
2016-Dec-10 07:15 090 0 gusting 0 3.9
2016-Dec-10 07:05 090 0 gusting 0 3.9
2016-Dec-10 06:55 090 0 gusting 0 3.9
2016-Dec-10 06:45 090 0 gusting 0 3.9
2016-Dec-10 06:35 110 0 gusting 0 2.8
2016-Dec-10 06:25 110 0 gusting 0 2.8
2016-Dec-10 06:15 090 0 gusting 0 2.8
2016-Dec-10 06:05 090 0 gusting 0 2.8
2016-Dec-10 05:55 090 0 gusting 0 2.8
2016-Dec-10 05:45 090 0 gusting 0 2.8
2016-Dec-10 05:35 110 0 gusting 0 2.8
2016-Dec-10 05:25 110 0 gusting 0 2.8
2016-Dec-10 05:15 090 0 gusting 0 2.8
2016-Dec-10 05:05 090 0 gusting 0 2.8
2016-Dec-10 04:55 090 0 gusting 0 3.9
2016-Dec-10 04:45 090 0 gusting 0 3.9
2016-Dec-10 04:35 090 0 gusting 0 3.9
2016-Dec-10 04:25 090 0 gusting 0 3.9
2016-Dec-10 04:15 120 0 gusting 0 3.9
2016-Dec-10 04:05 120 0 gusting 0 3.9
2016-Dec-10 03:55 090 0 gusting 0 3.9
2016-Dec-10 03:45 090 0 gusting 0 3.9
2016-Dec-10 03:35 120 0 gusting 0 3.9
2016-Dec-10 03:24 120 0 gusting 0 3.9
2016-Dec-10 03:14 090 0 gusting 0 5.0
2016-Dec-10 03:04 090 0 gusting 0 5.0
2016-Dec-10 02:54 3.9
2016-Dec-10 02:44 3.9
2016-Dec-10 02:34 110 0 gusting 0 5.0
2016-Dec-10 02:24 110 0 gusting 0 5.0
2016-Dec-10 02:14 110 0 gusting 0 5.0
2016-Dec-10 02:04 110 0 gusting 0 5.0
2016-Dec-10 01:54 090 0 gusting 0 5.0
2016-Dec-10 01:44 090 0 gusting 0 5.0
2016-Dec-10 01:34 120 0 gusting 0 3.9
2016-Dec-10 01:24 120 0 gusting 0 3.9
2016-Dec-10 01:14 090 0 gusting 0 5.0
2016-Dec-10 01:04 090 0 gusting 0 5.0
2016-Dec-10 00:54 090 0 gusting 0 5.0
2016-Dec-10 00:44 090 0 gusting 0 5.0
2016-Dec-10 00:34 140 0 gusting 0 6.1
2016-Dec-10 00:24 140 0 gusting 0 6.1
2016-Dec-10 00:14 090 0 gusting 0 6.1
2016-Dec-10 00:04 090 0 gusting 0 6.1
2016-Dec-09 23:54 090 0 gusting 0 6.1
2016-Dec-09 23:44 090 0 gusting 0 6.1
2016-Dec-09 23:34 090 0 gusting 0 6.1
2016-Dec-09 23:24 090 0 gusting 0 6.1
2016-Dec-09 23:14 270 0 gusting 0 6.1
2016-Dec-09 23:04 270 0 gusting 0 6.1
2016-Dec-09 22:54 270 0 gusting 0 6.1
2016-Dec-09 22:44 270 0 gusting 0 6.1
2016-Dec-09 22:34 090 0 gusting 0 6.1
2016-Dec-09 22:24 090 0 gusting 0 6.1
2016-Dec-09 22:14 140 0 gusting 0 6.1
2016-Dec-09 22:04 140 0 gusting 0 6.1
2016-Dec-09 21:54 090 0 gusting 0 6.1
2016-Dec-09 21:44 090 0 gusting 0 6.1
2016-Dec-09 21:34 090 0 gusting 0 6.1
2016-Dec-09 21:24 090 0 gusting 0 6.1
2016-Dec-09 21:14 090 0 gusting 0 6.1
2016-Dec-09 21:04 090 0 gusting 0 6.1
2016-Dec-09 20:54 090 0 gusting 0 6.1
2016-Dec-09 20:44 090 0 gusting 0 6.1
2016-Dec-09 20:34 090 0 gusting 0 6.1
2016-Dec-09 20:24 090 0 gusting 0 6.1
2016-Dec-09 20:14 090 0 gusting 0 5.0
2016-Dec-09 20:04 090 0 gusting 0 5.0
2016-Dec-09 19:54 090 0 gusting 0 5.0
2016-Dec-09 19:44 090 0 gusting 0 5.0
2016-Dec-09 19:34 200 0 gusting 0 5.0
2016-Dec-09 19:24 200 0 gusting 0 5.0
2016-Dec-09 19:14 140 0 gusting 0 5.0
2016-Dec-09 19:04 140 0 gusting 0 5.0
2016-Dec-09 18:54 130 0 gusting 0 5.0
2016-Dec-09 18:44 130 0 gusting 0 5.0
2016-Dec-09 18:34 120 0 gusting 0 6.1
2016-Dec-09 18:24 120 0 gusting 0 6.1
2016-Dec-09 18:14 140 0 gusting 0 6.1
2016-Dec-09 18:04 140 0 gusting 0 6.1
2016-Dec-09 17:54 180 0 gusting 0 6.1
2016-Dec-09 17:44 180 0 gusting 0 6.1
2016-Dec-09 17:34 090 0 gusting 0 6.1
2016-Dec-09 17:24 090 0 gusting 0 6.1
2016-Dec-09 17:14 150 0 gusting 0 7.2
2016-Dec-09 17:04 150 0 gusting 0 7.2
2016-Dec-09 16:54 140 0 gusting 0 7.8
2016-Dec-09 16:44 140 0 gusting 0 7.8
2016-Dec-09 16:34 140 0 gusting 0 8.9
2016-Dec-09 16:24 140 0 gusting 0 8.9
2016-Dec-09 16:14 090 0 gusting 0 10.0
2016-Dec-09 16:04 090 0 gusting 0 10.0
2016-Dec-09 15:54 270 0 gusting 0 12.2
2016-Dec-09 15:44 270 0 gusting 0 12.2
2016-Dec-09 15:34 050 0 gusting 0 12.8
2016-Dec-09 15:24 050 0 gusting 0 12.8
2016-Dec-09 15:14 050 0 gusting 0 12.8
2016-Dec-09 15:04 050 0 gusting 0 12.8
2016-Dec-09 14:54 270 0 gusting 0 13.9
2016-Dec-09 14:44 270 0 gusting 0 13.9
2016-Dec-09 14:34 270 0 gusting 0 15.0
2016-Dec-09 14:24 270 0 gusting 0 15.0
2016-Dec-09 14:14 270 0 gusting 0 15.0
2016-Dec-09 14:04 270 0 gusting 0 15.0
2016-Dec-09 13:54 330 0 gusting 0 15.0
2016-Dec-09 13:44 330 0 gusting 0 15.0
2016-Dec-09 13:34 310 0 gusting 0 16.1
2016-Dec-09 13:24 310 0 gusting 0 16.1
2016-Dec-09 13:14 050 0 gusting 0 15.0
2016-Dec-09 13:04 050 0 gusting 0 15.0
2016-Dec-09 12:54 270 0 gusting 0 13.9
2016-Dec-09 12:44 270 0 gusting 0 13.9
2016-Dec-09 12:34 330 0 gusting 0 13.9
2016-Dec-09 12:24 330 0 gusting 0 13.9
2016-Dec-09 12:14 230 0 gusting 0 12.2
2016-Dec-09 12:04 230 0 gusting 0 12.2
2016-Dec-09 11:54 270 0 gusting 0 12.2
2016-Dec-09 11:44 270 0 gusting 0 12.2
2016-Dec-09 11:34 270 0 gusting 0 12.8
2016-Dec-09 11:24 270 0 gusting 0 12.8
2016-Dec-09 11:14 270 0 gusting 0 12.8
2016-Dec-09 11:04 270 0 gusting 0 12.8
2016-Dec-09 10:54 270 0 gusting 0 11.1
2016-Dec-09 10:44 270 0 gusting 0 11.1
2016-Dec-09 10:34 320 0 gusting 0 7.8
2016-Dec-09 10:24 320 0 gusting 0 7.8
2016-Dec-09 10:14 270 0 gusting 0 7.8
2016-Dec-09 10:04 270 0 gusting 0 7.8
2016-Dec-09 09:54 090 0 gusting 0 7.2
2016-Dec-09 09:44 090 0 gusting 0 7.2
2016-Dec-09 09:34 270 0 gusting 0 6.1
2016-Dec-09 09:24 270 0 gusting 0 6.1
2016-Dec-09 09:14 090 0 gusting 0 5.0
2016-Dec-09 09:04 090 0 gusting 0 5.0
2016-Dec-09 08:54 090 0 gusting 0 3.9
2016-Dec-09 08:44 090 0 gusting 0 3.9
2016-Dec-09 08:34 120 0 gusting 0 3.9
2016-Dec-09 08:24 120 0 gusting 0 3.9
2016-Dec-09 08:14 120 0 gusting 0 3.9
2016-Dec-09 08:04 120 0 gusting 0 3.9
2016-Dec-09 07:54 090 0 gusting 0 2.8
2016-Dec-09 07:44 090 0 gusting 0 2.8
2016-Dec-09 07:34 090 0 gusting 0 2.8
2016-Dec-09 07:24 090 0 gusting 0 2.8
2016-Dec-09 07:14 130 0 gusting 0 2.8
2016-Dec-09 07:04 130 0 gusting 0 2.8
2016-Dec-09 06:54 090 0 gusting 0 2.2
2016-Dec-09 06:44 090 0 gusting 0 2.2
2016-Dec-09 06:34 120 0 gusting 0 2.8
2016-Dec-09 06:24 120 0 gusting 0 2.8
2016-Dec-09 06:14 090 0 gusting 0 2.8
2016-Dec-09 06:04 090 0 gusting 0 2.8
2016-Dec-09 05:54 110 0 gusting 0 2.8
2016-Dec-09 05:44 110 0 gusting 0 2.8
2016-Dec-09 05:34 110 0 gusting 0 2.8
2016-Dec-09 05:24 110 0 gusting 0 2.8
2016-Dec-09 05:14 090 0 gusting 0 2.8
2016-Dec-09 05:04 090 0 gusting 0 2.8
2016-Dec-09 04:54 140 0 gusting 0 2.8
2016-Dec-09 04:44 140 0 gusting 0 2.8
2016-Dec-09 04:34 090 0 gusting 0 2.8
2016-Dec-09 04:24 090 0 gusting 0 2.8
2016-Dec-09 04:14 180 0 gusting 0 2.8
2016-Dec-09 04:04 180 0 gusting 0 2.8
2016-Dec-09 03:54 120 0 gusting 0 2.8
2016-Dec-09 03:44 120 0 gusting 0 2.8
2016-Dec-09 03:34 110 0 gusting 0 2.8
2016-Dec-09 03:24 110 0 gusting 0 2.8
2016-Dec-09 03:14 140 0 gusting 0 2.8
2016-Dec-09 03:04 140 0 gusting 0 2.8
2016-Dec-09 02:54 090 0 gusting 0 2.8
2016-Dec-09 02:44 090 0 gusting 0 2.8
2016-Dec-09 02:34 230 0 gusting 0 2.8
2016-Dec-09 02:24 230 0 gusting 0 2.8
2016-Dec-09 02:14 090 0 gusting 0 2.8
2016-Dec-09 02:04 090 0 gusting 0 2.8
2016-Dec-09 01:54 090 0 gusting 0 2.8
2016-Dec-09 01:44 090 0 gusting 0 2.8
2016-Dec-09 01:34 090 0 gusting 0 2.8
2016-Dec-09 01:24 090 0 gusting 0 2.8
2016-Dec-09 01:14 120 0 gusting 0 2.8
2016-Dec-09 01:04 120 0 gusting 0 2.8
2016-Dec-09 00:54 090 0 gusting 0 2.8
2016-Dec-09 00:44 090 0 gusting 0 2.8
2016-Dec-09 00:34 090 0 gusting 0 2.8
2016-Dec-09 00:24 090 0 gusting 0 2.8
2016-Dec-09 00:14 090 0 gusting 0 3.9
2016-Dec-09 00:04 090 0 gusting 0 3.9
2016-Dec-08 23:54 090 0 gusting 0 3.9
2016-Dec-08 23:44 090 0 gusting 0 3.9
2016-Dec-08 23:34 110 0 gusting 0 3.9
2016-Dec-08 23:24 110 0 gusting 0 3.9
2016-Dec-08 23:14 090 0 gusting 0 3.9
2016-Dec-08 23:04 090 0 gusting 0 3.9
2016-Dec-08 22:54 090 0 gusting 0 3.9
2016-Dec-08 22:44 090 0 gusting 0 3.9
2016-Dec-08 22:34 090 0 gusting 0 3.9
2016-Dec-08 22:24 090 0 gusting 0 3.9
2016-Dec-08 22:14 150 0 gusting 0 3.9
2016-Dec-08 22:04 150 0 gusting 0 3.9
2016-Dec-08 21:54 150 0 gusting 0 3.9
2016-Dec-08 21:44 150 0 gusting 0 3.9
2016-Dec-08 21:34 270 0 gusting 0 3.9
2016-Dec-08 21:24 270 0 gusting 0 3.9
2016-Dec-08 21:14 3.9
2016-Dec-08 21:04 3.9
2016-Dec-08 20:54 3.9
2016-Dec-08 20:44 3.9
2016-Dec-08 20:34 140 0 gusting 0 3.9
2016-Dec-08 20:24 140 0 gusting 0 3.9
2016-Dec-08 20:14 140 0 gusting 0 3.9
2016-Dec-08 20:04 140 0 gusting 0 3.9
2016-Dec-08 19:54 5.0
2016-Dec-08 19:44 5.0
2016-Dec-08 19:34 320 0 gusting 0 5.0
2016-Dec-08 19:24 320 0 gusting 0 5.0
2016-Dec-08 19:14 230 0 gusting 0 5.0
2016-Dec-08 19:04 230 0 gusting 0 5.0
2016-Dec-08 18:54 140 0 gusting 0 5.0
2016-Dec-08 18:44 140 0 gusting 0 5.0
2016-Dec-08 18:34 200 0 gusting 0 6.1
2016-Dec-08 18:24 200 0 gusting 0 6.1
2016-Dec-08 18:14 270 0 gusting 0 6.1
2016-Dec-08 18:04 270 0 gusting 0 6.1
2016-Dec-08 17:54 170 0 gusting 0 6.1
2016-Dec-08 17:44 170 0 gusting 0 6.1
2016-Dec-08 17:34 090 0 gusting 0 7.2
2016-Dec-08 17:24 090 0 gusting 0 7.2
2016-Dec-08 17:14 7.2
2016-Dec-08 17:04 7.2
2016-Dec-08 16:54 090 0 gusting 0 8.9
2016-Dec-08 16:44 090 0 gusting 0 8.9
2016-Dec-08 16:34 090 0 gusting 0 8.9
2016-Dec-08 16:26 090 0 gusting 0 8.9
2016-Dec-08 16:14 090 0 gusting 0 10.0
2016-Dec-08 16:04 090 0 gusting 0 10.0